[[{"header":{"parameterUnit":"m.s-1","parameterCategory":1,"la1":30.2991,"la2":30.254,"lo1":-89.0895,"lo2":-89.0444,"dy":0.0017,"dx":0.0017,"nx":28,"ny":28,"refTime":"2025-05-16T03:00:00:Z","depth":0,"parameterNumber":2,"parameterNumberName":"U-component_of_WINDS"},"data":[0,0,0,0,0,0,0,0,0,0,0,0,0,0,0,0,0,0,0,0,0,0,0,0,0,0,0,0,0,0,0,0,0,0,0,0,0,0,0,0,0,0,0,0,0,0,0,0,0,0,0,0,0,0,0,0,0,0,2.0737,2.0738,0,2.0839,2.084,2.0841,2.0814,2.0812,2.081,2.0808,2.0914,2.0919,2.0924,0,0,0,0,0,0,0,0,0,0,0,0,0,2.0519,2.0523,2.0736,2.0738,2.0739,2.0838,2.084,2.0841,2.0814,2.0812,2.0809,2.0807,2.0913,2.0919,2.0924,0,0,0,0,0,0,0,0,0,0,0,0,0,2.0617,2.0525,2.0736,2.0738,2.0739,2.0838,2.084,2.0842,2.0815,2.0812,2.0809,2.0806,2.0911,2.0918,2.0925,2.103,0,0,2.0947,2.095,0,0,0,0,0,0,0,0,2.0611,2.0625,2.0736,2.0738,2.0739,2.081,2.0802,2.0905,2.0816,2.0786,2.0808,2.0804,2.0882,2.0892,2.0918,2.1035,2.104,2.0947,2.0952,2.0955,2.0957,0,0,0,0,0,0,0,2.0604,2.062,2.0777,2.0738,2.074,2.0733,2.0744,2.0822,2.085,2.0788,2.0787,2.0799,2.0883,2.0911,2.092,2.1041,2.0947,2.0953,2.0958,2.0961,2.1249,2.1252,0,0,0,0,0,0,2.0596,2.0615,2.0774,2.078,2.0666,2.074,2.0751,2.0791,2.0849,2.0855,2.0801,2.0797,2.09,2.0912,2.0924,2.105,2.0955,2.0961,2.0965,2.1245,2.125,2.1253,0,0,0,0,0,0,2.0592,2.0611,2.077,2.0697,2.0717,2.0747,2.0791,2.0794,2.0822,2.0859,2.0864,2.0825,2.0898,2.0914,2.1003,2.1053,2.0964,2.0971,2.1241,2.1247,2.1251,2.1304,0,0,0,0,0,0,2.0586,2.0609,2.065,2.0698,2.0721,2.0848,2.0794,2.0798,2.0834,2.083,2.0883,2.0888,2.0897,2.0993,2.101,2.1061,2.0976,2.1237,2.1244,2.125,2.1298,2.131,2.1321,0,0,0,0,0,2.0578,2.0661,2.0652,2.0671,2.0771,2.0851,2.0864,2.0871,2.0839,2.0879,2.0903,2.0887,2.1045,2.1002,2.1022,2.1076,2.1234,2.1242,2.1249,2.1293,2.1308,2.132,0,0,0,0,0,0,2.0619,2.0667,2.0658,2.0759,2.0801,2.0846,2.0898,2.0887,2.094,2.0934,2.0941,2.0954,2.1045,2.1069,2.1021,2.118,2.1135,2.1147,2.1161,2.1176,2.1187,2.1179,2.0982,0,0,0,0,0,2.0639,2.0699,2.0738,2.0824,2.0845,2.0868,2.0902,2.0905,2.0949,2.0967,2.0997,2.104,2.11,2.1139,2.1196,2.1301,2.1312,2.1347,2.1359,2.1368,2.1378,2.1435,2.1451,2.1278,2.1278,2.1278,0,0,2.0682,2.0716,2.0754,2.0833,2.0865,2.0927,2.0883,2.0951,2.0997,2.0977,2.1063,2.1087,2.1136,2.1234,2.1278,2.1257,2.1428,2.1378,2.1385,2.139,2.1445,2.1461,2.1475,2.1283,2.1282,2.1282,0,0,2.0793,2.0825,2.0899,2.0932,2.0982,2.0996,2.1014,2.1061,2.1075,2.1162,2.1148,2.1203,2.1305,2.1341,2.1372,2.1494,2.1482,2.1513,2.1573,2.1628,2.1642,2.1654,2.1697,2.1713,2.1523,2.1523,2.1523,0,2.0841,2.0933,2.0939,2.1007,2.1042,2.1026,2.1101,2.1133,2.1199,2.1224,2.1198,2.1325,2.1358,2.1463,2.1493,2.1519,2.1539,2.1507,2.1639,2.1651,2.1663,2.1704,2.1721,2.1526,2.1526,2.1526,2.1525,0,2.0989,2.1054,2.1108,2.1171,2.1212,2.1283,2.1299,2.134,2.1338,2.1355,2.1443,2.1481,2.1544,2.1569,2.1569,2.1675,2.166,2.1637,2.1591,2.1682,2.1722,2.1738,2.1531,2.153,2.1529,2.1528,0,0,2.113,2.1194,2.1213,2.1241,2.1294,2.1344,2.1415,2.1476,2.1511,2.1557,2.1616,2.1702,2.1681,2.1716,2.1719,2.1768,2.1862,2.1739,2.174,2.176,2.198,2.1997,2.2016,2.1853,2.1856,2.1859,2.1976,0,2.1245,2.1369,2.1375,2.1487,2.1547,2.1531,2.1593,2.1632,2.1649,2.1702,2.1721,2.1782,2.1749,2.177,2.1818,2.184,2.1906,2.1832,2.1909,2.1911,2.1897,2.2036,2.2055,2.2164,2.1991,2.1994,2.1996,0,2.1396,2.1446,2.1564,2.1607,2.1632,2.1687,2.1744,2.1794,2.1838,2.1847,2.1886,2.1882,2.1954,2.1906,2.2005,2.1954,2.1986,2.2002,2.2006,2.2014,2.196,2.2048,2.2199,2.2216,2.202,2.2018,2.2016,0,2.1487,2.1583,2.1666,2.169,2.1743,2.1782,2.1806,2.1846,2.1883,2.1932,2.1955,2.2012,2.2044,2.2088,2.2099,2.2063,2.2199,2.2151,2.2208,2.2208,2.2238,2.2237,2.2397,2.2258,2.2258,2.2258,2.2257,0,2.1615,2.1688,2.1707,2.1758,2.1839,2.1845,2.1925,2.1946,2.1982,2.2037,2.2028,2.2079,2.2091,2.2145,2.2154,2.2235,2.2249,2.2259,2.226,2.226,2.2259,2.2281,2.2274,2.2262,2.2261,2.226,2.226,0,2.173,2.1745,2.1835,2.1877,2.1889,2.1947,2.1983,2.2032,2.2048,2.2117,2.2134,2.2159,2.2222,2.2237,2.2312,2.2318,2.2414,2.2408,2.2399,2.2399,2.2455,2.2449,2.2636,2.2661,2.2506,2.2507,2.2508,0,2.1811,2.1867,2.1914,2.195,2.1975,2.2033,2.207,2.2077,2.2116,2.2169,2.2212,2.2273,2.2323,2.2425,2.2449,2.2507,2.2503,2.2564,2.2511,2.2509,2.2503,2.25,2.2506,2.2574,2.2576,2.2577,2.2578,0,2.1953,2.1958,2.201,2.2066,2.2109,2.2153,2.2195,2.2225,2.2239,2.2282,2.2346,2.2385,2.2461,2.2522,2.258,2.2604,2.2594,2.2594,2.2611,2.2611,2.2603,2.2608,2.2426,2.259,2.2589,2.2588,2.2588,2.2587,2.2054,2.2102,2.2143,2.2202,2.2234,2.2273,2.2321,2.2342,2.2395,2.2457,2.2458,2.2528,2.2569,2.2645,2.2673,2.2728,2.2709,2.2733,2.2739,2.2744,2.2749,2.2594,2.2738,2.2738,2.2738,2.2737,2.2737,0,2.2195,2.222,2.2274,2.2333,2.2379,2.2364,2.2409,2.2449,2.251,2.2549,2.2598,2.2671,2.273,2.2759,2.2817,2.2855,2.2852,2.287,2.2868,2.2874,2.2763,2.2743,2.2872,2.2872,2.2872,2.2872,2.2872,2.2872,2.2274,2.2355,2.2364,2.246,2.2485,2.2553,2.258,2.2616,2.2647,2.2729,2.2777,2.2795,2.2831,2.2891,2.2945,2.2952,2.2974,2.2995,2.2999,2.2895,2.2882,2.2869,2.285,2.2999,2.3,2.3106,2.3107,2.3107]},{"header":{"parameterUnit":"m.s-1","parameterCategory":1,"la1":30.2991,"la2":30.254,"lo1":-89.0895,"lo2":-89.0444,"dy":0.0017,"dx":0.0017,"nx":28,"ny":28,"refTime":"2025-05-16T03:00:00:Z","depth":0,"parameterNumber":3,"parameterNumberName":"V-component_of_WINDS"},"data":[0,0,0,0,0,0,0,0,0,0,0,0,0,0,0,0,0,0,0,0,0,0,0,0,0,0,0,0,0,0,0,0,0,0,0,0,0,0,0,0,0,0,0,0,0,0,0,0,0,0,0,0,0,0,0,0,0,0,4.002,4.0021,0,4.0103,4.0104,4.0105,4.0073,4.0072,4.007,4.0068,4.0147,4.0151,4.0155,0,0,0,0,0,0,0,0,0,0,0,0,0,3.9829,3.9832,4.002,4.0021,4.0022,4.0103,4.0104,4.0105,4.0074,4.0071,4.0069,4.0067,4.0146,4.0151,4.0155,0,0,0,0,0,0,0,0,0,0,0,0,0,3.9912,3.9834,4.002,4.0016,4.0017,4.0103,4.0104,4.0105,4.0074,4.0071,4.0069,4.0066,4.0145,4.015,4.0156,4.0249,0,0,4.0174,4.0176,0,0,0,0,0,0,0,0,3.9907,3.9919,4.0016,4.0017,4.0017,4.0075,4.0066,4.0153,4.0075,4.0052,4.0068,4.0065,4.0125,4.0133,4.0154,4.0252,4.0256,4.0174,4.0178,4.018,4.0182,0,0,0,0,0,0,0,3.9901,3.9915,4.0052,4.0017,4.0018,4.0009,4.0017,4.0082,4.0103,4.0054,4.0052,4.0062,4.0125,4.0149,4.0156,4.0257,4.0174,4.0179,4.0183,4.0185,4.0436,4.0439,0,0,0,0,0,0,3.9896,3.991,4.005,4.0055,3.9954,4.0014,4.0024,4.0059,4.0103,4.0107,4.0065,4.0061,4.014,4.0149,4.0158,4.0271,4.018,4.0186,4.0189,4.0433,4.0437,4.044,0,0,0,0,0,0,3.9892,3.9909,4.0047,3.9982,3.9999,4.0021,4.006,4.0062,4.0086,4.0111,4.0114,4.0085,4.0138,4.015,4.0227,4.0273,4.0188,4.0194,4.0429,4.0434,4.0438,4.0495,0,0,0,0,0,0,3.9887,3.9908,3.9944,3.9983,4.0003,4.0116,4.0063,4.0066,4.0097,4.0092,4.0131,4.0135,4.0137,4.0219,4.0233,4.0279,4.0198,4.0425,4.0431,4.0437,4.0489,4.0501,4.0512,0,0,0,0,0,3.988,3.9955,3.9946,3.9963,4.0049,4.0118,4.0129,4.0132,4.0101,4.0137,4.0153,4.0133,4.0265,4.0227,4.0242,4.0292,4.0422,4.0429,4.0436,4.0484,4.0499,4.0511,0,0,0,0,0,0,3.9919,3.9961,3.9951,4.0042,4.0077,4.0113,4.0159,4.0147,4.019,4.0184,4.0184,4.0193,4.0272,4.0289,4.0245,4.0384,4.0339,4.0349,4.037,4.0384,4.0395,4.039,4.0203,0,0,0,0,0,3.9938,3.9993,4.0025,4.0102,4.0121,4.0137,4.0167,4.0166,4.0202,4.0216,4.0238,4.0272,4.0321,4.0353,4.04,4.0491,4.0499,4.0533,4.0544,4.0553,4.0562,4.0613,4.0628,4.0463,4.0463,4.0463,0,0,3.9979,4.0008,4.0042,4.0111,4.0138,4.0193,4.015,4.0209,4.025,4.0224,4.0299,4.0316,4.0354,4.0439,4.0477,4.0456,4.0609,4.0562,4.0569,4.0574,4.0621,4.0637,4.0651,4.0468,4.0467,4.0467,0,0,4.008,4.0108,4.0176,4.0205,4.0247,4.0258,4.0274,4.0312,4.0323,4.0399,4.0381,4.0428,4.0512,4.0541,4.0566,4.0679,4.0663,4.0694,4.0752,4.0801,4.0814,4.0826,4.0867,4.0881,4.0703,4.0703,4.0703,0,4.0125,4.0209,4.0212,4.0274,4.0305,4.0286,4.0354,4.0381,4.0436,4.0457,4.0432,4.0539,4.0562,4.0654,4.0682,4.0703,4.0721,4.069,4.0812,4.0824,4.0835,4.0874,4.0889,4.0706,4.0706,4.0706,4.0705,0,4.0261,4.032,4.0369,4.0425,4.0461,4.0526,4.0537,4.0573,4.0569,4.0581,4.0658,4.0686,4.0739,4.076,4.0755,4.0851,4.0836,4.0812,4.0767,4.0854,4.0891,4.0906,4.0712,4.071,4.0709,4.0708,0,0,4.039,4.0448,4.0466,4.0492,4.0538,4.0582,4.0645,4.0699,4.073,4.0767,4.082,4.0893,4.0871,4.0899,4.0898,4.0941,4.103,4.0911,4.0912,4.0933,4.1137,4.1156,4.1174,4.1019,4.1021,4.1024,4.1134,0,4.0496,4.061,4.0615,4.0718,4.0772,4.0755,4.081,4.0844,4.0857,4.0903,4.0916,4.0969,4.0935,4.0953,4.0994,4.101,4.1071,4.1002,4.1067,4.1069,4.106,4.1193,4.1213,4.1316,4.1149,4.1151,4.1153,0,4.0636,4.0681,4.079,4.083,4.0852,4.0902,4.0952,4.0996,4.1033,4.104,4.1073,4.1065,4.1128,4.1081,4.1168,4.1121,4.1147,4.1159,4.1163,4.117,4.1117,4.1204,4.1349,4.1365,4.1175,4.1173,4.1172,0,4.072,4.0808,4.0885,4.0907,4.0955,4.099,4.1011,4.1045,4.1077,4.112,4.114,4.1189,4.1215,4.1252,4.1257,4.1222,4.1345,4.1298,4.1352,4.1352,4.1379,4.1377,4.1531,4.1394,4.1394,4.1394,4.1394,0,4.0839,4.0907,4.0924,4.0972,4.1047,4.105,4.1124,4.1142,4.1173,4.1222,4.1209,4.1256,4.1259,4.1306,4.131,4.1382,4.1394,4.14,4.1401,4.1402,4.1401,4.142,4.1413,4.1398,4.1397,4.1396,4.1396,0,4.0947,4.0961,4.1044,4.1083,4.1094,4.1148,4.118,4.1224,4.1236,4.1299,4.1314,4.1332,4.1388,4.1396,4.146,4.1463,4.1549,4.1541,4.1537,4.1537,4.159,4.1586,4.1762,4.1786,4.1633,4.1635,4.1636,0,4.1022,4.1074,4.1119,4.1153,4.1176,4.123,4.1263,4.1268,4.1303,4.135,4.1388,4.1443,4.1486,4.1575,4.1593,4.1641,4.1635,4.1694,4.1642,4.1643,4.1637,4.1635,4.164,4.1704,4.1706,4.1707,4.1708,0,4.1155,4.116,4.1209,4.1262,4.1303,4.1344,4.1382,4.141,4.142,4.1459,4.1517,4.1551,4.1617,4.1671,4.1719,4.1738,4.1725,4.1724,4.1739,4.1742,4.1738,4.1742,4.1565,4.172,4.1719,4.1718,4.1717,4.1717,4.1249,4.1295,4.1335,4.139,4.1421,4.1457,4.1502,4.152,4.1569,4.1625,4.1624,4.1687,4.1722,4.1787,4.1809,4.1857,4.1838,4.186,4.1866,4.1871,4.1877,4.173,4.1866,4.1866,4.1865,4.1865,4.1865,0,4.1382,4.1407,4.1459,4.1514,4.1558,4.1543,4.1585,4.1622,4.1679,4.1714,4.1758,4.1824,4.1876,4.1898,4.1949,4.1983,4.1979,4.1997,4.1995,4.1999,4.1891,4.1873,4.2,4.2,4.2,4.2,4.2,4.2,4.1457,4.1534,4.1544,4.1636,4.1659,4.1723,4.1748,4.1782,4.181,4.1885,4.1929,4.1944,4.1974,4.2027,4.2074,4.2079,4.2098,4.212,4.2122,4.202,4.2007,4.1994,4.1977,4.2124,4.2124,4.2227,4.2227,4.2228]}]]